Terminal Aerodrome Forecast
Issued by NWS Hastings, NE

Home | Current Version | Previous Version | Text Only | Print | Product List | Glossary On
Versions: 1 2 3 4 5 6 7 8 9 10 11 12 13 14 15 16 17 18 19 20 21 22 23 24 25 26 27 28 29 30 31 32 33 34 35 36 37 38 39 40 41 42 43 44 45 46 47 48 49 50
000
FTUS43 KGID 260525
TAFGRI
TAF
KGRI 260525Z 2606/2706 VRB06KT P6SM VCTS SCT015 BKN040CB
     FM261300 32010KT P6SM SCT012 BKN035
     FM261800 32012KT P6SM BKN060
     FM270200 VRB06KT P6SM BKN080=

USA.gov is the U.S. government's official web portal to all federal, state and local government web resources and services.